THORAD DELTA 1 DEB, 8141

Orbit data source: Space-Track

THORAD DELTA 1 DEB, 8141 is space debris in SSO originally from a launch on Fri, 15 Nov 1974 UTC launched from the Air Force Western Test Range (AFWTR). Debris objects in space refer to the collection of defunct objects orbiting the Earth. Examples of debris include non-operational satellites, rocket bodies, and fragments generated from explosions, collisions, or faulty payload assembly.

Loading next visibility...
Identifier
8141, 1974-089K
Orbit
SSO
Country
Flag of USUS
Related business
Manufacturer
Unknown
Mission
Spacecraft
Bus & Motor
Unknown
Mass
Unknown
Launch date (UTC)
1974-11-15 (51 years ago)
Launch vehicle
Unknown
Launch site
Air Force Western Test Range (AFWTR)
Object type
Payload
Rocket body
Debris
Shape & HBR
Unknown shape, 0.3 m
Radar Cross Section
Small (<0.1 m²)

Expand to show TLE details & history
Last TLE update: 12 hours ago

TLE from 12 hours ago
0 THORAD DELTA 1 DEB
1 08141U 74089K   25287.29839000  .00000025  00000-0  50946-3 0  9991
2 08141 101.3751 112.1492 0089253 176.5760   6.0951 12.36351930297072
Epoch: 2025-10-14T07:09Z
TLE epoch observation values (Epoch: 2025-10-14T07:09:40.896Z)
Latitude
-2.8469°
Longitude
161.06957°
Altitude
1,454.972 km
Speed
7.166 km/s
True Right ascension
19h 26m 18s
True Declination
-2° 49' 53"
Sunlit
Object was in daylight at epoch
Visualization orbit readout
Latitude
Unknown
Longitude
Unknown
Altitude
Unknown
Speed
Unknown
Apparent Right ascension
Unknown
Apparent Declination
Unknown
Sunlit
N/A
Visualization observer readout
Local Sidereal Time
13:49:35
Azimuth
Unknown
Elevation
Unknown
Doppler factor
Unknown
Orbital elements
Apogee altitude
1,590.139 km
Perigee altitude
1,449.159 km
Semi-major axis
7,897.786 km
Eccentricity
0.00893
Inclination
101.3751°
RAAN
112.1492°
Arg. of periapsis
176.576°
True anomaly
6.20491°
Mean anomaly
6.0951°
Eccentric anomaly
6.14988°
Mean motion
3.09233 °/min
Orbital period
116.42 mins
BSTAR
0.00050946
Loading maneuver chart data...
Computing Atmospheric mass density...

Documentation

Showing up to 5 results
|